Weather History for Laurinburg-Maxton, NC

Change the Weather History Date:

Tuesday, March 25, 2014

  Actual Average (KLBT) Record (KLBT)
Temperature  
Mean Temperature 42 °F 57 °F  
Max Temperature 48 °F 69 °F 85 °F (2007)
Min Temperature 35 °F 44 °F 32 °F (2006)
Degree Days  
Heating Degree Days 24 9  
Month to date heating degree days 299  
Since 1 July heating degree days 2529  
Cooling Degree Days 0 0  
Month to date cooling degree days 0  
Year to date cooling degree days 3  
Moisture  
Dew Point 35 °F    
Average Humidity 79    
Maximum Humidity 93    
Minimum Humidity 68    
Precipitation  
Precipitation 0.07 in 0.10 in 0.10 in (2001)
Month to date precipitation 2.64  
Year to date precipitation 8.51  
Sea Level Pressure  
Sea Level Pressure 29.90 in    
Wind  
Wind Speed 7 mph (North)    
Max Wind Speed 25 mph    
Max Gust Speed 46 mph    
Visibility 9 miles    
Events Rain    
T = Trace of Precipitation, MM = Missing Value Source: NWS Daily Summary

Daily Weather History Graph

Daily Weather History Graph

Search for Another Location

Airport:

Trip Planner

Search our weather history database for the weather conditions in past years. The results will help you decide how hot, cold, wet, or windy it might be!

Date:

Astronomy

Mar. 25, 2014 Rise Set
Actual Time 7:14 AM EDT 7:33 PM EDT
Civil Twilight 6:48 AM EDT 7:58 PM EDT
Nautical Twilight 6:19 AM EDT 8:28 PM EDT
Astronomical Twilight 5:49 AM EDT 8:58 PM EDT
Moon 3:22 AM EDT 2:13 PM EDT
Length of Visible Light 13h 09m
Length of Day
12h 18m
Waning Crescent, 32% of the Moon is Illuminated
Mar 25
Waning Crescent
Mar 30
New
Apr 7
First Quarter
Apr 15
Full
Apr 22
Last Quarter

Hourly Weather History & Observations

Time (EDT) Temp. Windchill Dew Point Humidity Pressure Visibility Wind Dir Wind Speed Gust Speed Precip Events Conditions
12:52 AM 39.9 °F 34.5 °F 32.0 °F 73% 30.11 in 10.0 mi SE 8.1 mph - N/A   Clear
1:52 AM 39.0 °F 34.8 °F 30.9 °F 73% 30.08 in 10.0 mi SE 5.8 mph - N/A   Clear
2:52 AM 39.0 °F 36.8 °F 32.0 °F 76% 30.04 in 10.0 mi East 3.5 mph - N/A   Clear
3:52 AM 37.0 °F 34.5 °F 32.0 °F 82% 30.01 in 10.0 mi East 3.5 mph - N/A   Scattered Clouds
4:52 AM 39.0 °F 34.8 °F 30.9 °F 73% 29.99 in 10.0 mi East 5.8 mph - N/A   Overcast
5:52 AM 39.0 °F 36.8 °F 32.0 °F 76% 29.97 in 10.0 mi ENE 3.5 mph - N/A   Overcast
6:52 AM 37.9 °F 35.5 °F 33.1 °F 83% 29.97 in 10.0 mi East 3.5 mph - N/A   Mostly Cloudy
7:52 AM 39.0 °F 33.4 °F 33.1 °F 79% 29.94 in 10.0 mi East 8.1 mph - N/A   Overcast
8:52 AM 41.0 °F 35.8 °F 34.0 °F 76% 29.90 in 10.0 mi ESE 8.1 mph - N/A   Mostly Cloudy
9:31 AM 43.0 °F - 34.0 °F 71% 29.93 in 10.0 mi Calm Calm - N/A   Overcast
9:52 AM 44.1 °F - 35.1 °F 71% 29.93 in 10.0 mi Calm Calm - N/A   Overcast
10:52 AM 46.0 °F - 36.0 °F 68% 29.90 in 10.0 mi Calm Calm - N/A   Overcast
11:20 AM 46.9 °F - 37.0 °F 68% 29.89 in 10.0 mi NE 4.6 mph - N/A   Overcast
11:32 AM 46.0 °F 43.9 °F 37.0 °F 71% 29.90 in 10.0 mi West 4.6 mph - N/A   Overcast
11:52 AM 45.0 °F 42.6 °F 39.0 °F 80% 29.90 in 5.0 mi NW 4.6 mph - 0.01 in Rain Light Rain
12:52 PM 45.0 °F 41.8 °F 39.0 °F 80% 29.85 in 10.0 mi North 5.8 mph - 0.01 in   Overcast
1:07 PM 46.9 °F - 39.9 °F 77% 29.82 in 10.0 mi NNE 5.8 mph - N/A   Overcast
1:52 PM 48.0 °F - 39.0 °F 71% 29.79 in 10.0 mi NNW 5.8 mph - N/A   Overcast
2:52 PM 46.0 °F 41.4 °F 39.0 °F 76% 29.78 in 8.0 mi NNW 9.2 mph - 0.00 in Rain Light Rain
3:52 PM 45.0 °F 40.1 °F 37.9 °F 76% 29.78 in 10.0 mi NNW 9.2 mph - 0.00 in   Overcast
4:17 PM 45.0 °F 39.3 °F 37.9 °F 76% 29.77 in 10.0 mi NNW 11.5 mph - N/A   Overcast
4:52 PM 44.1 °F 38.6 °F 37.9 °F 79% 29.79 in 10.0 mi NW 10.4 mph - N/A   Overcast
5:52 PM 45.0 °F 39.7 °F 36.0 °F 71% 29.80 in 10.0 mi NW 10.4 mph - N/A   Overcast
6:12 PM 44.1 °F 37.7 °F 35.1 °F 71% 29.81 in 10.0 mi NW 12.7 mph - N/A   Overcast
6:42 PM 37.9 °F 26.6 °F 34.0 °F 86% 29.85 in 1.8 mi NNW 25.3 mph 46.0 mph 0.04 in Rain Rain
6:48 PM 37.4 °F 27.5 °F 35.6 °F 93% 29.85 in 2.0 mi NNW 18.4 mph 33.4 mph 0.05 in Rain Rain
6:52 PM 37.0 °F 27.4 °F 35.1 °F 93% 29.85 in 4.0 mi NNW 17.3 mph 33.4 mph 0.05 in Rain Light Rain
7:14 PM 37.0 °F 29.8 °F 35.1 °F 93% 29.85 in 10.0 mi NNW 10.4 mph - 0.00 in   Overcast
7:52 PM 37.0 °F 31.6 °F 35.1 °F 93% 29.87 in 10.0 mi NNW 6.9 mph - 0.00 in   Mostly Cloudy
8:52 PM 37.0 °F 30.4 °F 35.1 °F 93% 29.90 in 10.0 mi North 9.2 mph - N/A   Overcast
9:52 PM 37.0 °F 30.4 °F 34.0 °F 89% 29.94 in 10.0 mi NNW 9.2 mph - N/A   Mostly Cloudy
10:52 PM 35.1 °F 28.6 °F 32.0 °F 89% 29.97 in 10.0 mi NW 8.1 mph - N/A   Clear
11:52 PM 35.1 °F 28.6 °F 30.0 °F 82% 29.99 in 10.0 mi NW 8.1 mph - N/A   Clear